This is the latest recevied weather packets stored in our database for station/object KAWM. If no packets are shown the sender has not sent any weather packets the latest 1 day(s).
| Time | Temp. | Humidity | Pressure | Rain* | Wind** | Luminosity | Snow |
|---|---|---|---|---|---|---|---|
| 1778053407 | 11.67° C | 93% | 1008.1 hPa | - | - | - | - |
| 1778052805 | 11.67° C | 93% | 1008.1 hPa | - | - | - | - |
| 1778052206 | 11.67° C | 93% | 1008.5 hPa | - | - | - | - |
| 1778051007 | 11.67° C | 93% | 1007.8 hPa | - | - | - | - |
| 1778050402 | 12.78° C | 93% | 1008.5 hPa | - | - | - | - |
| 1778049211 | 12.78° C | 93% | 1008.5 hPa | - | - | - | - |
| 1778048004 | 16.67° C | 88% | 1006.8 hPa | - | - | - | - |
| 1778047409 | 21.67° C | 83% | 1006.4 hPa | - | - | - | - |
| 1778046806 | 21.67° C | 78% | 1006.1 hPa | - | - | - | - |
| 1778045603 | 21.67° C | 78% | 1006.1 hPa | - | - | - | - |
| 1778045005 | 21.67° C | 78% | 1006.1 hPa | - | - | - | - |
| 1778043807 | 21.67° C | 78% | 1006.1 hPa | - | - | - | - |
| 1778043204 | 21.67° C | 78% | 1006.8 hPa | - | - | - | - |
| 1778042006 | 21.67° C | 78% | 1006.8 hPa | - | - | - | - |
| 1778041406 | 21.67° C | 78% | 1006.8 hPa | - | - | - | - |
| 1778040808 | 21.67° C | 78% | 1006.8 hPa | - | - | - | - |
| 1778040326 | 21.67° C | 78% | 1006.8 hPa | - | - | - | - |
| 1778038409 | 20.56° C | 83% | 1006.8 hPa | - | - | - | - |
| 1778037808 | 20.56° C | 83% | 1006.8 hPa | - | - | - | - |
| 1778036603 | 20.56° C | 83% | 1006.8 hPa | - | - | - | - |
| 1778036004 | 21.67° C | 78% | 1007.1 hPa | - | - | - | - |
| 1778035404 | 21.67° C | 78% | 1007.1 hPa | - | - | - | - |
| 1778034803 | 21.67° C | 78% | 1007.1 hPa | - | - | - | - |
| 1778033605 | 21.67° C | 78% | 1007.1 hPa | - | - | - | - |
| 1778032406 | 21.67° C | 83% | 1006.4 hPa | - | - | - | - |
* Rain since midnight (hover to see other rain measurements)
** Current wind speed in m/s (hover to see current wind gust speed)